Regional Weather Roundup
Issued by NWS

Home | Current Version | Previous Version | Graphics & Text | Print | Product List | Glossary On
Versions: 1 2 3 4 5 6 7 8 9 10 11 12 13 14 15 16 17 18 19 20 21 22 23 24 25 26 27 28 29 30 31 32 33 34 35 36 37 38 39 40 41 42 43 44 45 46 47 48 49 50
000
ASUS43 KLMK 261010
RWRKY
KENTUCKY REGIONAL WEATHER ROUNDUP
NATIONAL WEATHER SERVICE LOUISVILLE KY
600 AM EDT WED APR 26 2017

NOTE "FAIR" INDICATES FEW OR NO CLOUDS BELOW 12,000 FEET
WITH NO SIGNIFICANT WEATHER AND/OR OBSTRUCTIONS TO VISIBILITY.

KYZ001>023-026-027-061>063-070>075-261100-
WESTERN AND SOUTH CENTRAL KENTUCKY

CITY           SKY/WX    TMP DP  RH WIND       PRES   REMARKS
PADUCAH        CLOUDY    67  54  63 S7        29.60R
HENDERSON      CLOUDY    63  57  81 S10       29.62F
OWENSBORO      CLEAR     62  56  80 SE12      29.65R
HOPKINSVILLE   CLEAR     62  56  83 S8        29.67R
BOWLING GREEN  CLEAR     52  52 100 SE3       29.71S FOG
GLASGOW        CLEAR     57  55  91 CALM      29.73R
$$

KYZ024-025-028>034-038-045-046-053-261100-
NORTH CENTRAL KENTUCKY

CITY           SKY/WX    TMP DP  RH WIND       PRES   REMARKS
LOUISVILLE/SDF PTCLDY    59  56  89 SE8       29.68S
LOUISVILLE/LOU CLEAR     59  56  89 SE3       29.69S
FORT KNOX      CLEAR     57  54  90 S6        29.68S
$$

KYZ035>037-039>044-047>052-055>060-089>105-261100-
NORTHEAST KENTUCKY

CITY           SKY/WX    TMP DP  RH WIND       PRES   REMARKS
LEXINGTON      CLEAR     57  53  86 S7        29.73R
COVINGTON      CLEAR     57  54  89 S6        29.70S
FRANKFORT      CLEAR     54  50  86 CALM      29.71R
$$

KYZ054-064>069-076>088-106>120-261100-
SOUTHEAST KENTUCKY

CITY           SKY/WX    TMP DP  RH WIND       PRES   REMARKS
JACKSON        CLEAR     57  54  89 CALM      29.76R
LONDON         CLEAR     52  49  89 CALM      29.74R
SOMERSET       CLEAR     52  52 100 CALM      29.76R
MIDDLESBORO    FOG       49  49 100 CALM      29.77S VSB 1/4
MONTICELLO     SUNNY     52  51  97 NW8       29.77R
$$





USA.gov is the U.S. government's official web portal to all federal, state and local government web resources and services.